Погода в Твери

Погода в Твери : погода сейчас, прогноз погоды и архив. Всё, что Вы хотите узнать о погоде в Твери!

Хотите узнать прогноз погоды в Твери? Тогда Вам сюда: Погода в Твери

Поиск расширенной информации на нашем сайте:

Другие новости

Новости СМИ2

Главная страница сайта

Новости сайта

03.07.2017

Напоминаем, что на нашем специализированном сайте Метеоцентр.Азия вы можете получить высокодетализированные автоматические прогнозы погоды по пунктам России, СНГ и мира в авиационном формате (включающие направление и скорость ветра, видимость, явления погоды, количество и форму облачности, нижнюю и верхнюю границу облачности).


Погода в Твери - сегодня

Время (UTC), дата Ветер
(°,м/с) 
Видим.   Явления Облачность Т
(°С)
Тd
(°С)
f(%) Тe
(°С)
Pmin
(гПа)
dP
(гПа)
Po
(мм)
O2
(г/м3)
Тmin Tmax R s Состояние
почвы
12 11.10.18 300 (СЗ) 10 км    1/1 600 м 
[Cu hum]
+14.5 +3.7 48 +16  1030.6  760  290           
15 11.10.18 тихо ()   10 км    ясно 
+9 +2.1 62 +9  1031.8  0.8  760  296           
21 11.10.18 тихо ()   10 км    ясно 
+1.2 -0.1 91 +1  1034.8  1.2  762  306           
00 12.10.18 тихо ()   10 км    ясно 
+0.3 -0.8 92 1035  0.1  762  307           
09 12.10.18 240 (ЮЗ) 10 км    ясно 
+13.3 +5.6 60 +15  1033.6  -1.2  762  292           
12 12.10.18 260 (З) 10 км    ясно 
+16.4 +5.8 49 +17  1031.7  -1.7  761  288           
15 12.10.18 250 (З) 10 км    ясно 
+13.1 +5.9 62 +14  1030.4  -1.5  760  291           
21 12.10.18 тихо ()   10 км    ясно 
+8.3 +6.5 88 +8  1030  -0.2  759  296           
00 13.10.18 тихо ()   10 км    ясно 
+6.5 +5.5 93 +7  1029.8  -0.3  759  298           
09 13.10.18 300 (СЗ) 10 км    8/0 средняя, верхняя 
[Ac trans|Ci fib]
+11.8 +8.4 80 +13  1028.6  758  291           
12 13.10.18 240 (ЮЗ) 10 км    3/0 средняя 
[Ac trans]
+17.7 +8.6 55 +19  1026.7  -1.5  757  285           
15 13.10.18 тихо ()   10 км    4/0 верхняя 
[Ci fib]
+12.3 +8.6 78 +12  1026.9  -0.2  757  290           
21 13.10.18 тихо ()   10 км    ясно 
+7.9 +6.5 91 +8  1027.2  0.3  757  295           
00 14.10.18 тихо ()   10 км    6/0 средняя 
[Ac trans]
+8.3 +7.3 93 +8  1026.9  -0.2  757  295           
06 14.10.18 270 (З) 4000 м  дымка  9/0 средняя, верхняя 
[Ac trans|Ci fib]
+9.2 +8.3 94 +10  1027.3  0.5  757  294  +7.5        сухая 
09 14.10.18 270 (З) 10 км    8/0 средняя, верхняя 
[Ac trans|Ci fib]
+14.3 +10 75 +17  1026.7  -0.3  757  288           
12 14.10.18 300 (СЗ) 10 км    4/3 1000 м средняя 
[Sc|Ac trans]
+17.5 +9.8 61 +20  1026  -0.5  757  285           
15 14.10.18 тихо ()   10 км    6/0 средняя, верхняя 
[Ac trans|Ci fib]
+14.4 +9.8 74 +15  1026.1  -0.1  756  288           
21 14.10.18 тихо ()   10 км    ясно 
+9.6 +8.5 93 +10  1027.3  0.7  757  293           
00 15.10.18 270 (З) 10 км    ясно 
+8.2 +7.4 95 +9  1027.6  0.2  757  295           
03 15.10.18 тихо ()   0500 м  туман  6/0 средняя 
[Ac trans]
+5.9 +5.9 100 +6  1027.8  757  298  +5.9         
06 15.10.18 250 (З) 2000 м  в посл. час туман  3/0 средняя 
[Ac trans]
+7 +6.4 96 +8  1027.9  0.2  757  297  +5.7        сухая 
09 15.10.18 220 (ЮЗ) 10 км    ясно 
+14.7 +9.8 72 +17  1027.7  0.3  758  288           
12 15.10.18 250 (З) 10 км    ясно 
+18.8 +7.7 48 +20  1026.6  -0.9  757  284           
15 15.10.18 тихо ()   10 км    1/0 средняя 
[Ac trans]
+13 +8 72 +13  1026.3  -0.6  757  290           
Время (UTC), дата Ветер
(°,м/с) 
Видим.   Явления Облачность Т
(°С)
Тd
(°С)
f(%) Тe
(°С)
Pmin
(гПа)
dP
(гПа)
Po
(мм)
O2
(г/м3)
Тmin Tmax R s Состояние
почвы

Для получения пояснительной информации подведите курсор к названию столбца.

ПОГОДА в Твери - архив

Всё, что Вы хотите узнать о погоде в Твери - удобно и подробно!

Выберите нужную дату (начиная с 1 января 2015* года) и нажмите кнопку "Найти".
Будут отображены архивные сводки погоды по пункту Тверь, начиная с указанной даты.


Отображать данные в формате CSV (для использования в таблицах Excel)


Внимание! Наш архив погоды предназначен исключительно для личного некоммерческого использования в познавательных целях. Если Вам необходимы официальные справки о состоянии погоды (для производственных, юридических, коммерческих и т.п. целей), обращайтесь в органы Росгидромета.

*Примечание: данная дата относится к архиву по метеостанциям СССР (Россия, СНГ, Балтия).
Архив по метеостанциям Зарубежной Европы и Азии (кроме Китая) хранится 10 дней, по другим регионам земного шара (Китай, Африка, Америка, Австралия, Океания) - 1 день.

Тверь - район местоположения метеостанции


Название, широта, долгота, высота метеостанции:
Тверь (город) 56.8°ш. 35.7°д. 137 м над ур. моря [Российская Федерация]

Дополнительная информация

В oтличие oт бoльшинства пoгoдных сайтoв мы публикуем пoдрoбную метеoинфoрмацию в детальнoм прoфессиoнальнoм фoрмате.

Характеристики температуры и влажнoсти вoздуха измеряются на высoте 2 м в тени вдали oт зданий и деревьев.
Скoрoсть ветра измеряется на высoте 10 м (на урoвне рoста челoвека скoрoсть ветра ниже в 1.5-2 раза). Если метеoстанция нахoдится в гoрoде или в лесу, тo скoрoсть ветра занижена на 2-4 м/с пo сравнению с oткрытым местoм. Скoрoсть ветра над акватoриями крупных рек и oзёр, а также на вершинах хoлмoв на 2-5 м/с выше, чем в oбычных услoвиях.
Атмoсфернoе давление в разных тoчках местнoсти мoжет значительнo oтличаться oт давления на метеoстанции, в зависимoсти oт услoвий рельефа (при пoдъёме на 10 м давление пoнижается примернo на 1 мм рт.ст.).